FENGYUN 1C DEB

Satellite information

Favourite Embed

Satellite Type and Status

DEBRISIN ORBIT

Key statistics

Satellite FENGYUN 1C DEB at a glance.

Uptime

9609

Days in orbit

Revolutions

≈ 14.3

Per day

Orbit

SSO

Sun Synchronous Orbit

Inclination

98.9

Latest

Satellite identification and parameters

Extended collection of information and parameters for FENGYUN 1C DEB.

Object identification

Identified? True

Debris? True

Object name: FENGYUN 1C DEB

International designator: 1999-025BPP

Object number (NORAD): 31311

Object ID (CCSDS): 31311

Country: PEOPLES REPUBLIC OF CHINA (PRC)

Current information (Y/N): Y

RCS size: SMALL

Orbital parameters

Period: 100.809 minutes

Inclination: 98.857 deg

SMA: 7175.061 km

Apoapsis: 810.16 km

Periapsis: 783.691 km

RAAN: 320.51 deg

Eccentricy: 0.00184447

Argument of periapsis: 35.0702 deg

Mean anomaly: 89.0446 deg

Mean motion: 14.28447873 rev/day

Mean motion (dot): 0.00004282 rev/day2

B* drag term: 0.0017253352 1/REarth

Two-line elements (TLE)

Creation date: Aug. 29, 2025, 2:15 a.m.

Reference frame: TEME

Reference center: EARTH

Epoch: Aug. 28, 2025, 7:07 p.m. UTC

TLE line 0: 0 FENGYUN 1C DEB

TLE line 1: 1 31311U 99025BPP 25240.79702220 .00004282 00000-0 17253-2 0 9992

TLE line 2: 2 31311 98.8570 320.5100 0018445 35.0702 89.0446 14.28447873947085

Live tracking on map

Real-time ground track for satellite FENGYUN 1C DEB.

In-orbit conjunctions

A list of the most updated potential collisions computed for object FENGYUN 1C DEB.

Target Orbit TCA Probability of collision Miss distance Type
TECHSAT 1B SSO 2025-08-04 17:31:50 0.0007080543 714.0 (m) PAYLOAD
METEOR 2-8 DEB LEO 2025-07-24 10:24:43 0.0001470868 191.0 (m) DEBRIS
CZ-6A DEB LEO 2025-03-10 03:38:15 0.000229134 60.0 (m) DEBRIS
FENGYUN 1C DEB SSO 2024-11-11 09:08:11 0.0001283341 614.0 (m) DEBRIS

Associated space launch

Chinese polar orbiting meteorological satellite

FENGYUN 1C DEB was lifted into orbit during the mission ‘Long March 4B | Feng Yun 1C’, on board a Long March 4B space rocket.

The launch took place on May 10, 1999, 1:33 a.m. from Launch Complex 7.

For more information about the launch, click the button.

Launch to space Long March 4B | Feng Yun 1C
Long March 4B | Feng Yun 1C

Agency: N/A

Status: Launch Successful

Launch date: May 10, 1999, 1:33 a.m. UTC

Rocket: Long March 4B

Launch pad: Launch Complex 7

Location: Taiyuan Satellite Launch Center, People's Republic of China

...

Latest news about this satellite

There are no fresh news available about this satellite. Check back as we update our databases every day.


Newsletter sign-up

Weekly statistics, charts and insights to help you stay on top of the space industry.